Weather in Gubkino

Russia / Oryol Oblast     52°20′20″N   36°38′53″E
temp.,
°C
wind,
m/s
gust,
m/s
humid.,
%
clouds,
%
prec.,
mm/h
press.,
hPa
HPBL,
m
18 april, sun
sun1800:00+6ese1189100 0.3 101822
03:00+5se2396100 1.4 1018121
06:00+4sse2297100 1.5 101884
09:00+6s118478 2.3 1018344
12:00+9nne1166100 0.6 10181015
15:00+10ne2261100 1.9 1017998
18:00+9se1267100 0.9 1017818
21:00+7ne1180100 1.1 101813
19 april, mon
mon1900:00+7ene2383100 0.3 1017149
03:00+5ene2394100 1.4 1017489
06:00+4nne2394100 1.6 1017702
09:00+5ene3590100 1.8 1018589
12:00+6ene358299 0.1 1018774
15:00+8ene237372 0.1 1017693
18:00+7nne348080 0.1 1017291
21:00+6ne249077 0.2 1017126
20 april, tue
tue2000:00+6e248998 0.1 1016103
03:00+5e369461 0.2 1016173
06:00+5ene489598 0.0 1015233
09:00+8e698896 0.1 1014552
12:00+10ene81186100 0.3 1011940
15:00+8ene91592100 1.6 1008886
18:00+6ene111994100 9.6 1003905
21:00+7e112092100 18.5 9971185
21 april, wed
wed2100:00+9se81492100 3.5 996939
03:00+9s71390100 4.4 9961018
06:00+3sw61197100 1.7 1000570
09:00+4wsw71191100 1.9 1004902
12:00+6sw81289100 0.2 10071072
15:00+7wsw91383100 0.3 10101029
18:00+7wsw6108265 0.1 1013969
21:00+6sw51085100 0.3 1016466
22 april, thu
thu2200:00+6sw4982100 0.1 1017285
03:00+5sw4988100 0.3 1019301
06:00+4ssw4891100 0.1 1020197
09:00+8ssw477283 0.1 1022456
12:00+12ssw685880 0.1 10221473
15:00+14ssw685393 0.9 10211649
18:00+12ssw596999 1.3 1022681
21:00+9s3890100 3.2 1023204